QPF
0.00 0.00 0.00 0.00 0.00 0.00 0.00 0.00 0.00 0.00 0.00 0.00 0.00 0.00 0.00 0.00 0.00 0.00 0.00 0.00 0.00 0.00 0.00 0.00 0.00 0.00 0.00 0.01 0.01 0.02 0.04 0.06 0.07 0.08 0.09 0.12 0.13 0.12 0.11 0.12 0.12 0.12 0.12 0.14
0.00 0.00 0.00 0.00 0.00 0.00 0.00 0.00 0.00 0.00 0.00 0.00 0.00 0.00 0.00 0.00 0.00 0.00 0.00 0.00 0.00 0.00 0.00 0.00 0.00 0.00 0.01 0.01 0.02 0.04 0.05 0.06 0.07 0.07 0.06 0.06 0.07 0.06 0.06 0.07 0.08 0.09 0.11 0.10
0.00 0.00 0.00 0.00 0.00 0.00 0.00 0.00 0.00 0.00 0.00 0.00 0.00 0.00 0.00 0.00 0.00 0.00 0.00 0.00 0.00 0.00 0.00 0.00 0.00 0.00 0.01 0.02 0.03 0.06 0.06 0.07 0.10 0.10 0.06 0.05 0.05 0.04 0.03 0.03 0.03 0.05 0.05 0.03
0.00 0.00 0.00 0.00 0.00 0.00 0.00 0.00 0.00 0.00 0.00 0.00 0.00 0.00 0.00 0.00 0.00 0.00 0.00 0.00 0.00 0.00 0.00 0.00 0.00 0.00 0.01 0.01 0.03 0.05 0.08 0.09 0.10 0.12 0.09 0.07 0.06 0.06 0.04 0.03 0.02 0.03 0.02 0.00
0.00 0.00 0.00 0.00 0.00 0.00 0.00 0.00 0.00 0.00 0.00 0.00 0.00 0.00 0.00 0.00 0.00 0.00 0.00 0.00 0.00 0.00 0.00 0.00 0.00 0.00 0.01 0.02 0.02 0.04 0.06 0.09 0.10 0.12 0.11 0.09 0.08 0.07 0.06 0.05 0.04 0.03 0.02 0.00
0.00 0.00 0.00 0.00 0.00 0.00 0.00 0.01 0.01 0.00 0.00 0.00 0.01 0.02 0.01 0.00 0.00 0.00 0.00 0.00 0.00 0.00 0.00 0.00 0.00 0.00 0.00 0.01 0.02 0.03 0.04 0.07 0.11 0.13 0.14 0.12 0.12 0.10 0.08 0.07 0.06 0.03 0.02 0.01
0.00 0.00 0.00 0.00 0.00 0.00 0.02 0.04 0.02 0.00 0.00 0.01 0.03 0.05 0.02 0.00 0.00 0.00 0.00 0.00 0.01 0.00 0.00 0.00 0.00 0.00 0.00 0.01 0.01 0.01 0.02 0.06 0.11 0.14 0.15 0.16 0.15 0.13 0.10 0.08 0.07 0.05 0.03 0.02
0.00 0.01 0.01 0.00 0.00 0.02 0.04 0.03 0.01 0.01 0.01 0.02 0.02 0.01 0.01 0.01 0.00 0.00 0.00 0.00 0.01 0.01 0.01 0.01 0.01 0.01 0.01 0.01 0.01 0.01 0.02 0.06 0.10 0.12 0.10 0.10 0.11 0.10 0.11 0.08 0.05 0.04 0.03 0.02
0.00 0.01 0.01 0.01 0.01 0.02 0.02 0.02 0.03 0.02 0.02 0.02 0.02 0.02 0.01 0.01 0.01 0.01 0.01 0.01 0.02 0.02 0.02 0.04 0.04 0.03 0.02 0.01 0.01 0.01 0.03 0.06 0.10 0.10 0.10 0.12 0.09 0.07 0.06 0.05 0.04 0.03 0.02 0.01
0.02 0.01 0.01 0.01 0.02 0.01 0.01 0.01 0.01 0.01 0.01 0.02 0.03 0.03 0.03 0.03 0.03 0.03 0.03 0.03 0.03 0.04 0.05 0.07 0.09 0.08 0.05 0.02 0.02 0.02 0.03 0.06 0.08 0.10 0.09 0.09 0.10 0.07 0.05 0.03 0.03 0.02 0.02 0.02
0.03 0.01 0.01 0.01 0.01 0.00 0.00 0.00 0.00 0.01 0.01 0.02 0.03 0.04 0.04 0.04 0.04 0.05 0.04 0.03 0.04 0.07 0.10 0.11 0.14 0.16 0.11 0.05 0.02 0.02 0.03 0.05 0.07 0.08 0.09 0.09 0.08 0.07 0.06 0.05 0.02 0.02 0.01 0.00
0.01 0.01 0.01 0.01 0.01 0.01 0.01 0.01 0.01 0.01 0.01 0.02 0.02 0.03 0.03 0.04 0.04 0.05 0.04 0.05 0.06 0.08 0.09 0.11 0.15 0.21 0.17 0.11 0.05 0.03 0.03 0.04 0.05 0.05 0.07 0.07 0.07 0.03 0.01 0.02 0.00 0.00 0.00 0.00
0.01 0.01 0.01 0.01 0.01 0.01 0.02 0.01 0.01 0.01 0.01 0.02 0.02 0.02 0.03 0.03 0.03 0.03 0.04 0.05 0.06 0.07 0.08 0.09 0.13 0.18 0.19 0.16 0.11 0.05 0.03 0.04 0.03 0.03 0.04 0.04 0.05 0.03 0.01 0.00 0.00 0.00 0.00 0.00
0.00 0.00 0.00 0.00 0.01 0.01 0.01 0.00 0.00 0.00 0.00 0.01 0.01 0.01 0.02 0.02 0.02 0.02 0.03 0.04 0.05 0.06 0.07 0.10 0.13 0.16 0.19 0.21 0.17 0.09 0.04 0.03 0.03 0.03 0.02 0.02 0.02 0.02 0.02 0.01 0.00 0.00 0.00 0.00
0.00 0.00 0.00 0.00 0.00 0.00 0.00 0.00 0.00 0.00 0.00 0.00 0.00 0.00 0.01 0.01 0.02 0.02 0.03 0.04 0.05 0.06 0.08 0.11 0.15 0.18 0.22 0.26 0.23 0.13 0.06 0.03 0.02 0.01 0.01 0.01 0.01 0.01 0.01 0.01 0.01 0.00 0.00 0.00
0.00 0.00 0.00 0.00 0.00 0.00 0.00 0.00 0.00 0.00 0.00 0.00 0.00 0.00 0.00 0.01 0.01 0.02 0.02 0.04 0.07 0.09 0.11 0.14 0.17 0.21 0.27 0.31 0.28 0.19 0.09 0.03 0.01 0.01 0.01 0.01 0.00 0.00 0.01 0.01 0.01 0.01 0.00 0.00
0.00 0.00 0.00 0.00 0.00 0.00 0.00 0.00 0.00 0.00 0.00 0.00 0.00 0.00 0.00 0.00 0.01 0.02 0.02 0.04 0.07 0.09 0.11 0.14 0.18 0.22 0.31 0.36 0.32 0.21 0.10 0.03 0.01 0.01 0.01 0.00 0.00 0.00 0.00 0.01 0.01 0.00 0.00 0.00
0.00 0.00 0.00 0.00 0.00 0.00 0.00 0.00 0.00 0.00 0.00 0.00 0.00 0.00 0.00 0.01 0.02 0.02 0.03 0.03 0.05 0.07 0.10 0.12 0.16 0.23 0.32 0.40 0.37 0.23 0.11 0.04 0.01 0.00 0.00 0.00 0.00 0.00 0.00 0.00 0.00 0.00 0.00 0.00
0.00 0.00 0.00 0.00 0.00 0.00 0.00 0.00 0.00 0.00 0.00 0.00 0.01 0.01 0.02 0.02 0.03 0.03 0.04 0.05 0.06 0.07 0.10 0.13 0.14 0.18 0.27 0.40 0.44 0.31 0.14 0.05 0.01 0.00 0.00 0.00 0.00 0.00 0.00 0.00 0.00 0.00 0.00 0.00
0.00 0.00 0.00 0.00 0.00 0.00 0.00 0.00 0.00 0.01 0.01 0.02 0.03 0.04 0.04 0.04 0.04 0.04 0.05 0.06 0.07 0.07 0.10 0.14 0.15 0.15 0.21 0.35 0.47 0.35 0.17 0.07 0.02 0.00 0.00 0.00 0.00 0.00 0.00 0.00 0.00 0.00 0.00 0.00
0.00 0.00 0.00 0.00 0.00 0.00 0.00 0.01 0.02 0.04 0.05 0.05 0.07 0.07 0.06 0.05 0.05 0.05 0.06 0.06 0.06 0.08 0.09 0.11 0.14 0.16 0.19 0.31 0.45 0.38 0.20 0.08 0.03 0.01 0.00 0.00 0.00 0.00 0.00 0.00 0.00 0.00 0.00 0.00
0.00 0.00 0.00 0.00 0.00 0.01 0.01 0.02 0.05 0.07 0.08 0.09 0.10 0.10 0.10 0.09 0.06 0.06 0.05 0.06 0.06 0.06 0.07 0.09 0.13 0.18 0.21 0.27 0.35 0.35 0.23 0.11 0.04 0.01 0.00 0.00 0.00 0.00 0.00 0.00 0.00 0.00 0.00 0.00
0.00 0.00 0.01 0.01 0.01 0.02 0.02 0.04 0.07 0.10 0.13 0.15 0.16 0.16 0.15 0.12 0.09 0.08 0.04 0.03 0.05 0.05 0.06 0.08 0.10 0.15 0.18 0.19 0.23 0.24 0.20 0.12 0.05 0.02 0.00 0.00 0.00 0.00 0.00 0.00 0.00 0.00 0.00 0.00
0.00 0.00 0.01 0.01 0.01 0.03 0.04 0.06 0.08 0.11 0.14 0.17 0.18 0.17 0.16 0.14 0.09 0.06 0.05 0.03 0.02 0.02 0.04 0.05 0.05 0.08 0.13 0.15 0.15 0.15 0.14 0.10 0.05 0.02 0.00 0.00 0.00 0.00 0.00 0.00 0.00 0.00 0.00 0.00
0.00 0.00 0.00 0.01 0.03 0.05 0.08 0.11 0.14 0.16 0.19 0.20 0.18 0.16 0.13 0.12 0.10 0.07 0.05 0.04 0.03 0.02 0.02 0.03 0.03 0.05 0.07 0.09 0.09 0.08 0.07 0.07 0.04 0.02 0.01 0.00 0.00 0.00 0.00 0.00 0.00 0.00 0.00 0.00
0.00 0.00 0.00 0.01 0.03 0.06 0.10 0.17 0.23 0.26 0.30 0.35 0.31 0.22 0.15 0.12 0.10 0.08 0.06 0.03 0.02 0.01 0.02 0.03 0.04 0.04 0.05 0.05 0.05 0.04 0.03 0.03 0.02 0.02 0.00 0.00 0.00 0.00 0.00 0.00 0.00 0.00 0.00 0.00
0.00 0.00 0.00 0.01 0.03 0.05 0.11 0.18 0.26 0.31 0.39 0.49 0.49 0.34 0.21 0.14 0.12 0.10 0.07 0.05 0.03 0.03 0.03 0.03 0.05 0.06 0.05 0.04 0.03 0.02 0.02 0.01 0.01 0.00 0.00 0.00 0.00 0.00 0.00 0.00 0.00 0.00 0.00 0.00
MSLP
1011.69 1011.40 1011.07 1010.75 1010.48 1010.25 1010.07 1009.89 1009.70 1009.47 1009.17 1008.80 1008.39 1007.96 1007.55 1007.19 1006.92 1006.74 1006.66 1006.67 1006.75 1006.86 1006.99 1007.13 1007.26 1007.38 1007.52 1007.68 1007.86 1008.08 1008.32 1008.57 1008.81 1009.02 1009.18 1009.29 1009.32 1009.28 1009.19 1009.06 1008.90 1008.75 1008.61 1008.51
1011.63 1011.28 1010.88 1010.46 1010.09 1009.77 1009.52 1009.32 1009.14 1008.97 1008.78 1008.55 1008.28 1007.98 1007.66 1007.36 1007.10 1006.89 1006.75 1006.67 1006.64 1006.66 1006.71 1006.77 1006.86 1006.95 1007.07 1007.22 1007.41 1007.63 1007.88 1008.16 1008.45 1008.72 1008.97 1009.17 1009.31 1009.39 1009.41 1009.38 1009.31 1009.21 1009.12 1009.06
1011.49 1011.16 1010.77 1010.36 1009.97 1009.64 1009.39 1009.21 1009.08 1008.98 1008.87 1008.73 1008.55 1008.32 1008.04 1007.74 1007.44 1007.15 1006.89 1006.68 1006.52 1006.40 1006.33 1006.31 1006.33 1006.38 1006.48 1006.62 1006.81 1007.05 1007.33 1007.64 1007.98 1008.31 1008.64 1008.93 1009.17 1009.36 1009.48 1009.54 1009.56 1009.55 1009.52 1009.50
1011.40 1011.17 1010.88 1010.56 1010.26 1010.01 1009.82 1009.69 1009.62 1009.57 1009.52 1009.43 1009.28 1009.05 1008.75 1008.39 1007.98 1007.56 1007.14 1006.76 1006.42 1006.15 1005.94 1005.81 1005.74 1005.74 1005.81 1005.95 1006.15 1006.40 1006.71 1007.06 1007.44 1007.83 1008.22 1008.59 1008.91 1009.19 1009.40 1009.55 1009.66 1009.72 1009.76 1009.80
1011.49 1011.43 1011.31 1011.16 1011.01 1010.88 1010.79 1010.75 1010.74 1010.73 1010.69 1010.59 1010.41 1010.13 1009.74 1009.26 1008.71 1008.12 1007.52 1006.94 1006.42 1005.97 1005.61 1005.35 1005.19 1005.13 1005.16 1005.28 1005.48 1005.75 1006.08 1006.46 1006.88 1007.31 1007.75 1008.17 1008.56 1008.90 1009.19 1009.42 1009.60 1009.74 1009.85 1009.96
1011.87 1012.01 1012.10 1012.14 1012.17 1012.18 1012.20 1012.23 1012.25 1012.25 1012.19 1012.04 1011.79 1011.40 1010.89 1010.27 1009.56 1008.79 1007.99 1007.23 1006.52 1005.89 1005.38 1004.99 1004.73 1004.60 1004.58 1004.67 1004.86 1005.14 1005.48 1005.88 1006.32 1006.78 1007.25 1007.70 1008.13 1008.53 1008.88 1009.18 1009.43 1009.64 1009.83 1010.01
1012.57 1012.91 1013.19 1013.42 1013.60 1013.73 1013.83 1013.89 1013.91 1013.87 1013.75 1013.51 1013.15 1012.65 1012.01 1011.24 1010.38 1009.45 1008.50 1007.57 1006.70 1005.93 1005.28 1004.78 1004.42 1004.20 1004.12 1004.17 1004.34 1004.59 1004.92 1005.32 1005.76 1006.23 1006.71 1007.19 1007.66 1008.09 1008.49 1008.85 1009.18 1009.47 1009.73 1009.99
1013.56 1014.05 1014.47 1014.82 1015.09 1015.27 1015.39 1015.43 1015.39 1015.27 1015.04 1014.70 1014.22 1013.61 1012.86 1011.99 1011.02 1009.98 1008.93 1007.89 1006.92 1006.04 1005.29 1004.69 1004.24 1003.94 1003.80 1003.79 1003.90 1004.11 1004.41 1004.78 1005.21 1005.67 1006.15 1006.65 1007.14 1007.61 1008.07 1008.49 1008.89 1009.25 1009.60 1009.93
1014.72 1015.28 1015.76 1016.13 1016.39 1016.54 1016.58 1016.53 1016.38 1016.14 1015.79 1015.33 1014.76 1014.06 1013.24 1012.32 1011.32 1010.25 1009.17 1008.10 1007.09 1006.17 1005.36 1004.69 1004.17 1003.80 1003.58 1003.49 1003.53 1003.69 1003.93 1004.26 1004.65 1005.09 1005.57 1006.07 1006.59 1007.11 1007.62 1008.11 1008.58 1009.03 1009.46 1009.87
1015.88 1016.42 1016.84 1017.13 1017.28 1017.29 1017.19 1016.98 1016.67 1016.28 1015.81 1015.25 1014.60 1013.87 1013.05 1012.15 1011.19 1010.18 1009.15 1008.13 1007.15 1006.24 1005.43 1004.73 1004.16 1003.73 1003.43 1003.26 1003.22 1003.29 1003.47 1003.73 1004.08 1004.49 1004.96 1005.48 1006.02 1006.59 1007.16 1007.73 1008.29 1008.82 1009.33 1009.81
1016.86 1017.28 1017.54 1017.65 1017.60 1017.40 1017.09 1016.68 1016.19 1015.65 1015.06 1014.43 1013.76 1013.04 1012.28 1011.48 1010.63 1009.74 1008.84 1007.94 1007.05 1006.21 1005.44 1004.75 1004.16 1003.67 1003.30 1003.06 1002.93 1002.91 1003.00 1003.20 1003.49 1003.88 1004.34 1004.86 1005.44 1006.06 1006.70 1007.35 1007.99 1008.61 1009.19 1009.74
1017.52 1017.73 1017.76 1017.61 1017.30 1016.85 1016.30 1015.67 1015.01 1014.33 1013.66 1013.00 1012.35 1011.71 1011.06 1010.40 1009.72 1009.01 1008.28 1007.53 1006.79 1006.05 1005.35 1004.69 1004.09 1003.58 1003.15 1002.83 1002.62 1002.51 1002.53 1002.65 1002.90 1003.24 1003.69 1004.23 1004.85 1005.52 1006.22 1006.95 1007.67 1008.37 1009.02 1009.63
1017.77 1017.73 1017.48 1017.06 1016.47 1015.77 1014.99 1014.19 1013.38 1012.62 1011.90 1011.25 1010.67 1010.13 1009.62 1009.12 1008.62 1008.10 1007.56 1006.98 1006.37 1005.75 1005.13 1004.52 1003.93 1003.40 1002.93 1002.55 1002.26 1002.08 1002.02 1002.09 1002.28 1002.60 1003.04 1003.59 1004.23 1004.94 1005.71 1006.50 1007.30 1008.06 1008.78 1009.43
1017.63 1017.32 1016.80 1016.11 1015.29 1014.37 1013.43 1012.49 1011.61 1010.80 1010.10 1009.49 1008.99 1008.56 1008.19 1007.85 1007.51 1007.16 1006.77 1006.33 1005.85 1005.33 1004.77 1004.20 1003.64 1003.10 1002.60 1002.17 1001.83 1001.59 1001.48 1001.49 1001.64 1001.93 1002.36 1002.91 1003.57 1004.32 1005.14 1005.98 1006.83 1007.66 1008.43 1009.12
1017.15 1016.60 1015.85 1014.95 1013.95 1012.91 1011.86 1010.88 1009.97 1009.19 1008.53 1008.00 1007.58 1007.26 1006.99 1006.76 1006.54 1006.28 1005.99 1005.65 1005.24 1004.78 1004.28 1003.74 1003.19 1002.65 1002.14 1001.69 1001.32 1001.04 1000.88 1000.86 1000.97 1001.23 1001.64 1002.19 1002.86 1003.64 1004.48 1005.36 1006.25 1007.12 1007.93 1008.66
1016.44 1015.70 1014.79 1013.76 1012.68 1011.58 1010.53 1009.57 1008.71 1008.00 1007.41 1006.96 1006.61 1006.35 1006.14 1005.96 1005.77 1005.55 1005.28 1004.96 1004.57 1004.13 1003.64 1003.12 1002.59 1002.05 1001.55 1001.09 1000.71 1000.42 1000.24 1000.19 1000.28 1000.52 1000.90 1001.44 1002.10 1002.87 1003.72 1004.62 1005.54 1006.43 1007.28 1008.04
1015.61 1014.74 1013.74 1012.68 1011.59 1010.54 1009.56 1008.68 1007.93 1007.31 1006.81 1006.42 1006.11 1005.87 1005.65 1005.44 1005.21 1004.94 1004.62 1004.25 1003.84 1003.37 1002.88 1002.36 1001.84 1001.32 1000.84 1000.40 1000.03 999.75 999.57 999.50 999.57 999.78 1000.14 1000.65 1001.28 1002.03 1002.87 1003.77 1004.70 1005.61 1006.48 1007.27
1014.74 1013.81 1012.81 1011.78 1010.77 1009.82 1008.97 1008.23 1007.60 1007.08 1006.66 1006.30 1006.00 1005.72 1005.43 1005.12 1004.78 1004.40 1003.98 1003.52 1003.03 1002.52 1002.00 1001.48 1000.98 1000.50 1000.05 999.66 999.33 999.07 998.90 998.83 998.89 999.07 999.39 999.85 1000.45 1001.16 1001.97 1002.84 1003.76 1004.67 1005.55 1006.37
1013.88 1012.95 1012.00 1011.06 1010.18 1009.39 1008.69 1008.10 1007.59 1007.17 1006.79 1006.44 1006.09 1005.72 1005.32 1004.87 1004.38 1003.85 1003.29 1002.71 1002.14 1001.58 1001.04 1000.53 1000.07 999.64 999.26 998.93 998.65 998.43 998.29 998.23 998.27 998.42 998.70 999.10 999.64 1000.29 1001.05 1001.88 1002.77 1003.67 1004.55 1005.38
1013.05 1012.17 1011.30 1010.49 1009.76 1009.12 1008.58 1008.11 1007.71 1007.34 1006.98 1006.60 1006.17 1005.68 1005.14 1004.53 1003.87 1003.19 1002.49 1001.82 1001.17 1000.58 1000.05 999.57 999.17 998.81 998.51 998.26 998.05 997.89 997.78 997.73 997.76 997.88 998.10 998.44 998.91 999.49 1000.18 1000.95 1001.79 1002.66 1003.52 1004.35
1012.25 1011.44 1010.68 1009.99 1009.40 1008.90 1008.48 1008.11 1007.77 1007.42 1007.03 1006.59 1006.05 1005.43 1004.74 1003.98 1003.17 1002.36 1001.57 1000.82 1000.14 999.55 999.06 998.65 998.33 998.08 997.88 997.72 997.59 997.49 997.41 997.37 997.39 997.47 997.64 997.91 998.30 998.80 999.41 1000.11 1000.88 1001.70 1002.53 1003.33
1011.49 1010.76 1010.09 1009.52 1009.04 1008.64 1008.29 1007.97 1007.64 1007.27 1006.82 1006.28 1005.63 1004.88 1004.05 1003.16 1002.25 1001.35 1000.50 999.73 999.07 998.53 998.11 997.80 997.59 997.45 997.36 997.30 997.26 997.21 997.18 997.15 997.15 997.19 997.31 997.51 997.82 998.24 998.76 999.38 1000.08 1000.83 1001.60 1002.36
1010.80 1010.13 1009.56 1009.06 1008.65 1008.30 1007.97 1007.64 1007.28 1006.83 1006.29 1005.64 1004.87 1004.01 1003.07 1002.09 1001.11 1000.18 999.33 998.59 997.99 997.53 997.22 997.03 996.94 996.92 996.94 996.98 997.02 997.03 997.03 997.02 997.01 997.02 997.09 997.23 997.47 997.81 998.25 998.79 999.41 1000.08 1000.78 1001.48
1010.21 1009.62 1009.09 1008.65 1008.26 1007.90 1007.55 1007.16 1006.71 1006.16 1005.50 1004.73 1003.85 1002.88 1001.86 1000.83 999.83 998.90 998.09 997.42 996.91 996.56 996.36 996.30 996.33 996.43 996.56 996.69 996.80 996.87 996.90 996.90 996.89 996.88 996.92 997.02 997.20 997.47 997.84 998.30 998.84 999.44 1000.07 1000.70
1009.80 1009.25 1008.76 1008.32 1007.91 1007.51 1007.08 1006.59 1006.02 1005.35 1004.56 1003.67 1002.68 1001.62 1000.55 999.49 998.49 997.59 996.84 996.26 995.85 995.61 995.53 995.58 995.72 995.92 996.14 996.34 996.51 996.62 996.69 996.71 996.70 996.70 996.72 996.79 996.94 997.16 997.49 997.89 998.37 998.90 999.46 1000.03
1009.61 1009.08 1008.60 1008.14 1007.68 1007.19 1006.65 1006.04 1005.33 1004.52 1003.59 1002.58 1001.49 1000.37 999.25 998.17 997.19 996.34 995.65 995.14 994.82 994.68 994.69 994.83 995.05 995.32 995.60 995.86 996.07 996.22 996.32 996.37 996.38 996.39 996.42 996.50 996.63 996.84 997.14 997.51 997.95 998.43 998.94 999.46
1009.65 1009.14 1008.64 1008.13 1007.59 1007.01 1006.34 1005.59 1004.74 1003.79 1002.73 1001.61 1000.43 999.24 998.09 997.01 996.04 995.23 994.59 994.14 993.88 993.79 993.86 994.04 994.31 994.61 994.93 995.21 995.45 995.64 995.77 995.85 995.90 995.94 996.00 996.10 996.25 996.48 996.77 997.14 997.56 998.02 998.51 999.00
Thickness
5739 5747 5750 5749 5751 5753 5746 5741 5729 5731 5733 5738 5737 5735 5733 5730 5726 5721 5717 5714 5709 5703 5697 5690 5683 5678 5674 5671 5668 5665 5660 5656 5651 5647 5642 5637 5631 5626 5622 5619 5616 5615 5618 5621
5731 5743 5748 5749 5755 5754 5749 5745 5737 5730 5726 5734 5730 5725 5719 5716 5713 5709 5709 5707 5704 5699 5692 5686 5679 5674 5670 5666 5663 5660 5655 5651 5648 5642 5637 5632 5627 5622 5618 5615 5613 5613 5614 5615
5721 5736 5737 5731 5748 5748 5743 5739 5725 5711 5712 5717 5711 5706 5704 5703 5701 5699 5700 5698 5695 5691 5687 5683 5677 5671 5665 5662 5660 5656 5652 5649 5645 5640 5635 5629 5625 5620 5617 5614 5612 5611 5611 5611
5715 5717 5703 5735 5757 5749 5735 5723 5713 5708 5704 5699 5694 5695 5697 5696 5688 5685 5686 5685 5684 5684 5683 5680 5676 5670 5664 5660 5657 5653 5649 5646 5644 5638 5633 5628 5623 5619 5615 5613 5611 5610 5609 5608
5707 5704 5715 5734 5730 5725 5713 5698 5689 5687 5683 5682 5682 5682 5684 5682 5675 5673 5674 5675 5677 5679 5680 5678 5673 5668 5661 5656 5653 5651 5648 5645 5643 5638 5632 5626 5621 5617 5614 5611 5609 5607 5606 5604
5700 5688 5684 5695 5712 5718 5705 5681 5667 5667 5662 5660 5660 5649 5653 5659 5660 5661 5663 5665 5667 5670 5673 5673 5670 5665 5658 5653 5649 5647 5647 5645 5642 5637 5631 5626 5620 5616 5612 5609 5606 5605 5603 5601
5690 5685 5694 5678 5695 5697 5666 5642 5648 5648 5643 5640 5634 5631 5637 5643 5644 5645 5649 5652 5655 5658 5660 5664 5666 5661 5654 5649 5647 5647 5647 5645 5641 5636 5630 5625 5620 5615 5611 5607 5604 5603 5600 5598
5695 5682 5669 5661 5665 5642 5625 5628 5626 5623 5620 5617 5616 5617 5619 5621 5624 5628 5632 5636 5639 5641 5645 5651 5657 5655 5651 5647 5646 5646 5644 5642 5638 5634 5630 5626 5619 5614 5610 5606 5603 5600 5597 5596
5680 5653 5634 5632 5624 5615 5611 5607 5604 5600 5598 5596 5594 5594 5595 5597 5601 5606 5611 5616 5621 5624 5629 5636 5642 5646 5646 5646 5643 5641 5640 5638 5635 5632 5628 5625 5619 5614 5609 5606 5603 5600 5597 5594
5663 5635 5628 5618 5611 5604 5599 5594 5590 5587 5583 5580 5576 5576 5576 5577 5580 5584 5591 5597 5603 5608 5613 5620 5625 5632 5639 5642 5639 5636 5634 5633 5631 5627 5625 5622 5618 5615 5611 5607 5605 5602 5599 5597
5639 5619 5615 5612 5601 5594 5589 5584 5580 5576 5572 5567 5564 5563 5562 5562 5564 5565 5570 5577 5584 5590 5596 5604 5610 5615 5626 5632 5633 5631 5630 5629 5627 5625 5622 5619 5616 5613 5612 5610 5609 5605 5603 5601
5608 5597 5589 5588 5585 5579 5574 5570 5567 5563 5560 5556 5551 5548 5547 5547 5548 5549 5552 5557 5564 5572 5580 5588 5595 5601 5609 5620 5624 5624 5624 5624 5623 5622 5620 5616 5613 5608 5601 5604 5604 5605 5605 5602
5590 5585 5578 5574 5572 5568 5563 5560 5556 5552 5547 5543 5540 5535 5530 5529 5529 5531 5534 5538 5544 5552 5563 5572 5581 5589 5596 5603 5612 5616 5618 5619 5620 5619 5618 5615 5612 5608 5601 5594 5595 5598 5599 5597
5584 5576 5571 5568 5566 5562 5556 5551 5547 5543 5539 5534 5529 5525 5521 5518 5517 5517 5518 5521 5527 5536 5547 5557 5567 5576 5582 5589 5598 5607 5611 5614 5615 5617 5617 5615 5612 5609 5606 5600 5595 5591 5588 5586
5576 5570 5565 5562 5557 5552 5546 5540 5535 5532 5529 5525 5521 5517 5514 5511 5510 5509 5510 5511 5515 5523 5533 5543 5553 5562 5568 5576 5585 5597 5603 5608 5611 5615 5616 5615 5614 5611 5608 5603 5599 5594 5585 5576
5568 5562 5556 5549 5544 5539 5534 5530 5525 5523 5521 5518 5515 5511 5508 5506 5505 5505 5504 5504 5505 5512 5521 5531 5542 5551 5557 5565 5574 5587 5597 5603 5606 5609 5612 5612 5612 5610 5607 5604 5600 5596 5589 5581
5553 5547 5540 5533 5528 5524 5521 5518 5516 5514 5513 5510 5508 5506 5503 5501 5500 5499 5499 5499 5499 5504 5511 5521 5533 5543 5548 5555 5563 5577 5590 5597 5600 5605 5607 5609 5609 5609 5607 5604 5601 5597 5593 5586
5540 5531 5524 5517 5513 5511 5511 5510 5509 5506 5505 5503 5501 5498 5494 5492 5491 5491 5492 5492 5494 5497 5504 5514 5525 5535 5542 5548 5557 5569 5584 5594 5598 5601 5604 5606 5607 5607 5606 5604 5601 5597 5593 5586
5527 5519 5514 5509 5506 5504 5503 5502 5501 5500 5498 5495 5491 5488 5485 5482 5481 5481 5482 5483 5486 5491 5499 5509 5519 5528 5536 5544 5553 5565 5578 5591 5596 5598 5600 5601 5602 5604 5604 5602 5600 5597 5594 5587
5515 5510 5507 5504 5502 5500 5498 5498 5496 5494 5491 5487 5483 5479 5476 5473 5471 5471 5473 5476 5482 5488 5495 5503 5514 5525 5533 5540 5549 5561 5575 5588 5595 5596 5596 5599 5600 5601 5601 5601 5599 5597 5594 5589
5507 5504 5502 5500 5500 5500 5498 5496 5493 5490 5486 5481 5475 5471 5468 5467 5465 5464 5467 5473 5482 5486 5492 5501 5512 5523 5531 5537 5545 5558 5571 5583 5592 5595 5595 5597 5599 5599 5599 5599 5599 5597 5595 5592
5501 5499 5499 5499 5498 5499 5499 5496 5492 5488 5482 5476 5471 5466 5463 5462 5462 5462 5464 5469 5478 5482 5490 5501 5513 5522 5529 5534 5544 5556 5568 5579 5588 5593 5595 5596 5598 5597 5598 5598 5598 5597 5596 5594
5498 5497 5497 5497 5498 5499 5499 5497 5492 5485 5478 5472 5468 5465 5463 5461 5460 5459 5465 5472 5477 5483 5491 5502 5513 5520 5525 5533 5543 5555 5566 5576 5584 5590 5594 5596 5598 5598 5598 5598 5599 5599 5598 5596
5496 5497 5497 5498 5499 5499 5498 5495 5490 5484 5477 5473 5470 5467 5464 5464 5465 5464 5466 5471 5475 5480 5492 5503 5510 5518 5524 5535 5544 5553 5564 5574 5582 5588 5594 5597 5598 5599 5599 5600 5600 5600 5599 5597
5495 5494 5496 5496 5497 5496 5494 5492 5488 5483 5479 5476 5475 5473 5471 5469 5468 5470 5472 5477 5481 5487 5498 5508 5513 5520 5529 5539 5546 5554 5563 5572 5580 5587 5593 5597 5599 5601 5601 5601 5601 5601 5600 5598
5491 5491 5492 5492 5492 5490 5489 5486 5481 5479 5478 5478 5480 5480 5480 5479 5478 5478 5479 5484 5489 5495 5505 5515 5522 5526 5536 5543 5550 5556 5564 5571 5579 5585 5592 5598 5601 5603 5604 5604 5603 5602 5601 5599
5489 5489 5490 5491 5492 5489 5486 5482 5479 5479 5479 5480 5482 5486 5488 5489 5488 5488 5489 5492 5498 5506 5515 5524 5531 5537 5543 5548 5553 5558 5564 5571 5579 5587 5592 5597 5602 5604 5606 5606 5605 5603 5602 5600